Find Starlink 5199

NORAD ID: 54201 Int'l Des: 2022-141 Owner: SPXS Country: US Constellation: starlink operational
LEOCIRCULAR

現在のビュー

3D地球を読み込み中...

About Starlink 5199

Starlink 5199 (NORAD 54201) is a starlink constellation satellite (v1.5) launched Oct 28, 2022 by SPXS of US. It operates in LEO, CIRCULAR orbit with a mass of 305.00 kg.

Starlink 5199について

説明を読み込み中...

次回通過

Passes for default location (London). Set your location on the main map for personalized predictions.

高度履歴

Loading altitude history...

軌道要素

1 54201U 22141AW 26194.83335647 .00069244 00000-0 38088-2 0 9997
2 54201 53.1595 147.5313 0003108 123.4946 175.8575 15.13445417 5836
Epoch: Jul 13, 2026 • Age: 10 hours

現在のステータス

高度 526.4 km
遠地点 / 近地点 N/A
速度 7.60 km/s
衛星直下点 11.24°N, 134.49°E
打ち上げ日 Oct 28, 2022
運用期間 3.7 years
タイプ internet

技術仕様

分類 Payload
質量 305.00 kg
乾燥質量 290.00 kg
総質量 305.00 kg
長さ 0.20 m
直径 2.80 m
スパン 9.00 m
形状 Box + pan
製造者 SPXS
バスタイプ Starlink
フェーズステータス In Orbit
所有者/国 SPXS/US

Most Searched